timestamp,surface_pressure_avg,surface_temp_avg,battery_voltage,lat,long
2020-06-09 00:09:01+00:00,333.3313,7.9,12.81,47.84626,-54.09684
2020-06-09 00:19:01+00:00,343.5679,7.9,12.81,47.84626,-54.09684
2020-06-09 00:29:01+00:00,353.9396,7.95,12.81,47.84626,-54.09684
2020-06-09 00:39:01+00:00,356.5496,7.99,12.81,47.84626,-54.09684
2020-06-09 00:49:01+00:00,362.4763,8.0,12.81,47.84626,-54.09684
2020-06-09 00:59:01+00:00,370.5745,8.03,12.81,47.84626,-54.09684
2020-06-09 01:09:01+00:00,371.7664,8.1,12.81,47.84626,-54.09684
2020-06-09 01:19:01+00:00,374.7629,8.17,12.73,47.84626,-54.09684
2020-06-09 01:29:01+00:00,378.423,8.2,12.73,47.84626,-54.09684
2020-06-09 01:39:01+00:00,383.9446,8.25,12.73,47.84626,-54.09684
2020-06-09 01:49:01+00:00,384.1497,8.3,12.73,47.84626,-54.09684
2020-06-09 01:59:01+00:00,382.6196,8.3,12.73,47.84626,-54.09684
2020-06-09 02:09:01+00:00,386.1095,8.32,12.73,47.84626,-54.09684
2020-06-09 02:19:01+00:00,382.9946,8.4,12.73,47.84626,-54.09684
2020-06-09 02:29:01+00:00,379.2513,8.4,12.73,47.84626,-54.09684
2020-06-09 02:39:01+00:00,378.8863,8.4,12.73,47.84626,-54.09684
2020-06-09 02:49:01+00:00,382.7763,8.4,12.73,47.84626,-54.09684
2020-06-09 02:59:01+00:00,381.2563,8.41,12.73,47.84626,-54.09684
2020-06-09 03:09:01+00:00,373.283,8.46,12.73,47.84626,-54.09684
2020-06-09 03:19:01+00:00,369.078,8.4,12.73,47.84626,-54.09684
2020-06-09 03:29:01+00:00,367.9779,8.47,12.73,47.84626,-54.09684
2020-06-09 03:39:01+00:00,361.8246,8.5,12.73,47.84626,-54.09684
2020-06-09 03:49:01+00:00,358.0114,8.3,12.73,47.84626,-54.09684
2020-06-09 03:59:01+00:00,355.283,8.3,12.73,47.84626,-54.09684
2020-06-09 04:09:01+00:00,348.6896,8.4,12.73,47.84626,-54.09684
2020-06-09 04:19:01+00:00,340.0297,8.4,12.73,47.84626,-54.09684
2020-06-09 04:29:01+00:00,330.3063,8.4,12.73,47.84626,-54.09684
2020-06-09 04:39:01+00:00,319.4864,8.4,12.73,47.84626,-54.09684
2020-06-09 04:49:01+00:00,313.243,8.4,12.73,47.84626,-54.09684
2020-06-09 04:59:01+00:00,306.178,8.39,12.73,47.84626,-54.09684
2020-06-09 05:09:01+00:00,294.1297,8.4,12.73,47.84626,-54.09684
2020-06-09 05:19:01+00:00,281.3714,8.45,12.65,47.84626,-54.09684
2020-06-09 05:29:01+00:00,274.7314,8.41,12.65,47.84626,-54.09684
2020-06-09 05:39:01+00:00,267.2431,8.48,12.65,47.84626,-54.09684
2020-06-09 05:49:01+00:00,253.2448,8.5,12.65,47.84626,-54.09684
2020-06-09 05:59:01+00:00,241.8013,8.54,12.65,47.84626,-54.09684
2020-06-09 06:09:01+00:00,236.6731,8.53,12.65,47.84626,-54.09684
2020-06-09 06:19:01+00:00,226.1898,8.53,12.65,47.84626,-54.09684
2020-06-09 06:29:01+00:00,212.3998,8.53,12.65,47.84626,-54.09684
2020-06-09 06:39:01+00:00,209.6514,8.54,12.65,47.84626,-54.09684
2020-06-09 06:49:01+00:00,207.3997,8.55,12.65,47.84626,-54.09684
2020-06-09 06:59:01+00:00,197.4464,8.56,12.65,47.84626,-54.09684
2020-06-09 07:09:01+00:00,192.6181,8.56,12.65,47.84626,-54.09684
2020-06-09 07:19:01+00:00,196.5832,8.56,12.65,47.84626,-54.09684
2020-06-09 07:29:01+00:00,194.1648,8.53,12.65,47.84626,-54.09684
2020-06-09 07:39:01+00:00,190.1531,8.5,12.65,47.84626,-54.09684
2020-06-09 07:49:01+00:00,193.8648,8.52,12.65,47.84626,-54.09684
2020-06-09 07:59:01+00:00,196.7881,8.52,12.65,47.84626,-54.09684
2020-06-09 08:09:01+00:00,191.6565,8.54,12.65,47.84626,-54.09684
2020-06-09 08:19:01+00:00,191.7248,8.55,12.57,47.84626,-54.09684
2020-06-09 08:29:01+00:00,200.0898,8.51,12.57,47.84626,-54.09684
2020-06-09 08:39:01+00:00,198.9931,8.5,12.57,47.84626,-54.09684
2020-06-09 08:49:01+00:00,199.6998,8.5,12.57,47.84626,-54.09684
2020-06-09 08:59:01+00:00,208.4965,8.5,12.57,47.84626,-54.09684
2020-06-09 09:09:01+00:00,209.9748,8.5,12.57,47.84626,-54.09684
2020-06-09 09:19:01+00:00,211.6048,8.5,12.65,47.84626,-54.09684
2020-06-09 09:29:01+00:00,221.2365,8.5,12.65,47.84626,-54.09684
2020-06-09 09:39:01+00:00,227.4981,8.5,12.65,47.84626,-54.09684
2020-06-09 09:49:01+00:00,224.7365,8.5,12.65,47.84626,-54.09684
2020-06-09 09:59:01+00:00,226.2664,8.5,12.65,47.84626,-54.09684
2020-06-09 10:09:01+00:00,234.7597,8.5,12.65,47.84626,-54.09684
2020-06-09 10:19:01+00:00,237.2831,8.5,12.89,47.84626,-54.09684
2020-06-09 10:29:01+00:00,237.7481,8.5,12.89,47.84626,-54.09684
2020-06-09 10:39:01+00:00,240.9764,8.5,12.89,47.84626,-54.09684
2020-06-09 10:49:01+00:00,248.5748,8.5,12.89,47.84626,-54.09684
2020-06-09 10:59:01+00:00,253.0315,8.5,12.89,47.84626,-54.09684
2020-06-09 11:09:01+00:00,254.5931,8.4,12.89,47.84626,-54.09684
2020-06-09 11:19:01+00:00,255.8848,8.4,13.29,47.84626,-54.09684
2020-06-09 11:29:01+00:00,263.2048,8.4,13.29,47.84626,-54.09684
2020-06-09 11:39:01+00:00,268.1831,8.2,13.29,47.84626,-54.09684
2020-06-09 11:49:01+00:00,271.2147,8.2,13.29,47.84626,-54.09684
2020-06-09 11:59:01+00:00,274.0647,8.22,13.29,47.84626,-54.09684
2020-06-09 12:09:01+00:00,282.668,8.13,13.29,47.84626,-54.09684
2020-06-09 12:19:01+00:00,289.4114,8.17,13.37,47.84626,-54.09684
2020-06-09 12:29:01+00:00,293.3397,8.14,13.37,47.84626,-54.09684
2020-06-09 12:39:01+00:00,298.4647,8.18,13.37,47.84626,-54.09684
2020-06-09 12:49:01+00:00,310.0513,8.1,13.37,47.84626,-54.09684
2020-06-09 12:59:01+00:00,317.0081,8.1,13.37,47.84626,-54.09684
2020-06-09 13:09:01+00:00,313.2629,8.1,13.37,47.84626,-54.09684
2020-06-09 13:19:01+00:00,319.5247,8.1,13.68,47.84626,-54.09684
2020-06-09 13:29:01+00:00,326.9497,8.1,13.68,47.84626,-54.09684
2020-06-09 13:39:01+00:00,327.8879,8.0,13.68,47.84626,-54.09684
2020-06-09 13:49:01+00:00,325.8613,7.96,13.68,47.84626,-54.09684
2020-06-09 13:59:01+00:00,327.5396,8.01,13.68,47.84626,-54.09684
2020-06-09 14:09:01+00:00,330.8279,8.1,13.68,47.84626,-54.09684
2020-06-09 14:19:01+00:00,334.5130000000001,7.98,14.0,47.84626,-54.09684
2020-06-09 14:29:01+00:00,333.2847,7.9,14.0,47.84626,-54.09684
2020-06-09 14:39:01+00:00,329.5347,7.8,14.0,47.84626,-54.09684
2020-06-09 14:49:01+00:00,331.233,7.7,14.0,47.84626,-54.09684
2020-06-09 14:59:01+00:00,334.0496,7.82,14.0,47.84626,-54.09684
2020-06-09 15:09:01+00:00,324.4497,7.9,14.0,47.84626,-54.09684
2020-06-09 15:19:01+00:00,322.3596,7.87,14.32,47.84626,-54.09684
2020-06-09 15:29:01+00:00,334.0864,7.9,14.32,47.84626,-54.09684
2020-06-09 15:39:01+00:00,334.2663,8.0,14.32,47.84626,-54.09684
2020-06-09 15:49:01+00:00,321.613,7.93,14.32,47.84626,-54.09684
2020-06-09 15:59:01+00:00,320.3113,7.97,14.32,47.84626,-54.09684
2020-06-09 16:09:01+00:00,328.6646,8.08,14.32,47.84626,-54.09684
2020-06-09 16:19:01+00:00,320.348,8.0,14.24,47.84626,-54.09684
2020-06-09 16:29:01+00:00,306.5464,8.06,14.24,47.84626,-54.09684
2020-06-09 16:39:01+00:00,311.4113,8.02,14.24,47.84626,-54.09684
2020-06-09 16:49:01+00:00,309.3214,8.11,14.24,47.84626,-54.09684
2020-06-09 16:59:01+00:00,289.4247,8.17,14.24,47.84626,-54.09684
2020-06-09 17:09:01+00:00,280.3197,8.2,14.24,47.84626,-54.09684
2020-06-09 17:19:01+00:00,281.813,8.1,13.53,47.84626,-54.09684
2020-06-09 17:29:01+00:00,272.6748,8.26,13.53,47.84626,-54.09684
2020-06-09 17:39:01+00:00,258.008,8.4,13.53,47.84626,-54.09684
2020-06-09 17:49:01+00:00,254.4247,8.4,13.53,47.84626,-54.09684
2020-06-09 17:59:01+00:00,248.1848,8.23,13.53,47.84626,-54.09684
2020-06-09 18:09:01+00:00,234.4014,8.53,13.53,47.84626,-54.09684
2020-06-09 18:19:01+00:00,226.3897,8.6,13.13,47.84626,-54.09684
2020-06-09 18:29:01+00:00,226.218,8.48,13.13,47.84626,-54.09684
2020-06-09 18:39:01+00:00,219.3681,8.1,13.13,47.84626,-54.09684
2020-06-09 18:49:01+00:00,202.1048,8.3,13.13,47.84626,-54.09684
2020-06-09 18:59:01+00:00,194.2998,8.17,13.13,47.84626,-54.09684
2020-06-09 19:09:01+00:00,198.7031,8.3,13.13,47.84626,-54.09684
2020-06-09 19:19:01+00:00,190.6848,8.28,14.0,47.84626,-54.09684
2020-06-09 19:29:01+00:00,180.4948,8.4,14.0,47.84626,-54.09684
2020-06-09 19:39:01+00:00,189.3848,8.2,14.0,47.84626,-54.09684
2020-06-09 19:49:01+00:00,192.4865,8.39,14.0,47.84626,-54.09684
2020-06-09 19:59:01+00:00,185.0915,8.5,14.0,47.84626,-54.09684
2020-06-09 20:09:01+00:00,193.2314,8.4,14.0,47.84626,-54.09684
2020-06-09 20:19:01+00:00,201.1548,7.9,14.0,47.84626,-54.09684
2020-06-09 20:29:01+00:00,196.1465,8.16,14.0,47.84626,-54.09684
2020-06-09 20:39:01+00:00,194.6148,8.3,14.0,47.84626,-54.09684
2020-06-09 20:49:01+00:00,200.0064,8.2,14.0,47.84626,-54.09684
2020-06-09 20:59:01+00:00,203.7698,8.17,14.0,47.84626,-54.09684
2020-06-09 21:09:01+00:00,206.6714,8.18,14.0,47.84626,-54.09684
2020-06-09 21:19:01+00:00,211.2081,8.2,13.84,47.84626,-54.09684
2020-06-09 21:29:01+00:00,212.3065,8.2,13.84,47.84626,-54.09684
2020-06-09 21:39:01+00:00,218.5748,8.1,13.84,47.84626,-54.09684
2020-06-09 21:49:01+00:00,227.7765,7.78,13.84,47.84626,-54.09684
2020-06-09 21:59:01+00:00,230.4198,7.89,13.84,47.84626,-54.09684
2020-06-09 22:09:01+00:00,226.6765,7.9,13.84,47.84626,-54.09684
2020-06-09 22:19:01+00:00,227.9748,7.6,13.6,47.84626,-54.09684
2020-06-09 22:29:01+00:00,237.6414,7.46,13.6,47.84626,-54.09684
2020-06-09 22:39:01+00:00,242.3597,7.51,13.6,47.84626,-54.09684
2020-06-09 22:49:01+00:00,242.6947,7.6,13.6,47.84626,-54.09684
2020-06-09 22:59:01+00:00,247.3098,7.46,13.6,47.84626,-54.09684
2020-06-09 23:09:01+00:00,256.6947,7.0,13.6,47.84626,-54.09684
2020-06-09 23:19:01+00:00,255.9897,6.9,13.29,47.84626,-54.09684
2020-06-09 23:29:01+00:00,257.9631,7.05,13.29,47.84626,-54.09684
2020-06-09 23:39:01+00:00,268.5981,7.0,13.29,47.84626,-54.09684
2020-06-09 23:49:01+00:00,277.6497,6.9,13.29,47.84626,-54.09684
2020-06-09 23:59:01+00:00,280.3563,6.79,13.29,47.84626,-54.09684
